[[{"header":{"parameterUnit":"m.s-1","parameterCategory":1,"la1":30.2991,"la2":30.254,"lo1":-89.0895,"lo2":-89.0444,"dy":0.0017,"dx":0.0017,"nx":28,"ny":28,"refTime":"2025-03-03T03:00:00:Z","depth":0,"parameterNumber":2,"parameterNumberName":"U-component_of_WINDS"},"data":[0,0,0,0,0,0,0,0,0,0,0,0,0,0,0,0,0,0,0,0,0,0,0,0,0,0,0,0,0,0,0,0,0,0,0,0,0,0,0,0,0,0,0,0,0,0,0,0,0,0,0,0,0,0,0,0,0,0,-0.0826,-0.0825,0,-0.0789,-0.0788,-0.0788,-0.0819,-0.0821,-0.0822,-0.0823,-0.0784,-0.0782,-0.078,0,0,0,0,0,0,0,0,0,0,0,0,0,-0.0923,-0.0921,-0.0826,-0.0825,-0.0825,-0.0789,-0.0788,-0.0788,-0.0819,-0.0821,-0.0822,-0.0824,-0.0785,-0.0783,-0.078,0,0,0,0,0,0,0,0,0,0,0,0,0,-0.0883,-0.092,-0.0826,-0.0836,-0.0837,-0.0789,-0.0788,-0.0788,-0.0819,-0.0821,-0.0823,-0.0825,-0.0786,-0.0783,-0.078,-0.072,0,0,-0.0769,-0.0768,0,0,0,0,0,0,0,0,-0.0885,-0.0879,-0.0835,-0.0835,-0.0836,-0.0811,-0.0809,-0.0765,-0.0818,-0.0825,-0.0823,-0.0825,-0.0792,-0.0788,-0.0777,-0.0718,-0.0716,-0.0769,-0.0767,-0.0765,-0.0764,0,0,0,0,0,0,0,-0.0888,-0.0881,-0.0811,-0.0834,-0.0835,-0.0842,-0.0839,-0.08,-0.0798,-0.0825,-0.0827,-0.0822,-0.0792,-0.078,-0.0776,-0.0716,-0.0769,-0.0766,-0.0764,-0.0763,-0.0608,-0.0606,0,0,0,0,0,0,-0.0889,-0.0883,-0.0812,-0.081,-0.0866,-0.0839,-0.0835,-0.0817,-0.0799,-0.0798,-0.0821,-0.0824,-0.0785,-0.078,-0.0775,-0.0705,-0.0765,-0.0762,-0.076,-0.061,-0.0607,-0.0605,0,0,0,0,0,0,-0.0891,-0.0883,-0.0814,-0.0847,-0.0839,-0.0835,-0.0814,-0.0815,-0.0803,-0.0795,-0.0795,-0.0809,-0.0786,-0.0779,-0.0734,-0.0704,-0.0761,-0.0758,-0.0612,-0.0609,-0.0606,-0.0564,0,0,0,0,0,0,-0.0894,-0.0883,-0.0861,-0.0846,-0.0837,-0.0773,-0.0813,-0.0813,-0.0797,-0.0801,-0.0784,-0.0783,-0.0787,-0.0739,-0.073,-0.0701,-0.0755,-0.0615,-0.0611,-0.0607,-0.0568,-0.056,-0.0553,0,0,0,0,0,-0.0897,-0.085,-0.0859,-0.0851,-0.0808,-0.0771,-0.0766,-0.0772,-0.0794,-0.0772,-0.0767,-0.0784,-0.0708,-0.0734,-0.0725,-0.0693,-0.0617,-0.0612,-0.0607,-0.0572,-0.0562,-0.0553,0,0,0,0,0,0,-0.086,-0.0848,-0.0858,-0.0805,-0.0789,-0.0777,-0.0748,-0.0761,-0.0738,-0.0743,-0.0751,-0.0747,-0.0699,-0.0691,-0.0719,-0.0635,-0.0666,-0.066,-0.0642,-0.0633,-0.0625,-0.0629,-0.0752,0,0,0,0,0,-0.0845,-0.0817,-0.0807,-0.0761,-0.0753,-0.0752,-0.0736,-0.0742,-0.0726,-0.0719,-0.0711,-0.0695,-0.0668,-0.0649,-0.0624,-0.0567,-0.0565,-0.0541,-0.0534,-0.0527,-0.0522,-0.0493,-0.0483,-0.059,-0.059,-0.059,0,0,-0.0815,-0.0805,-0.0786,-0.0753,-0.0742,-0.0712,-0.0746,-0.0712,-0.0691,-0.0714,-0.0671,-0.0664,-0.0646,-0.0595,-0.0572,-0.0588,-0.0492,-0.0521,-0.0517,-0.0514,-0.0487,-0.0477,-0.0468,-0.0586,-0.0587,-0.0587,0,0,-0.0745,-0.0734,-0.0695,-0.0683,-0.0666,-0.0665,-0.0656,-0.0642,-0.0639,-0.0596,-0.0613,-0.0587,-0.0539,-0.0527,-0.0514,-0.044,-0.0455,-0.0431,-0.0392,-0.0364,-0.0356,-0.0348,-0.0324,-0.0315,-0.0426,-0.0426,-0.0425,0,-0.071,-0.0666,-0.0673,-0.0639,-0.0625,-0.0645,-0.0606,-0.0593,-0.0568,-0.0558,-0.0575,-0.0517,-0.0506,-0.0454,-0.0436,-0.0424,-0.0414,-0.0434,-0.0356,-0.0349,-0.0342,-0.0319,-0.0309,-0.0423,-0.0423,-0.0424,-0.0424,0,-0.0625,-0.0594,-0.0564,-0.0541,-0.0522,-0.0486,-0.0488,-0.0468,-0.0476,-0.0474,-0.0431,-0.0418,-0.0392,-0.0379,-0.0385,-0.0327,-0.0338,-0.0355,-0.0387,-0.0329,-0.0308,-0.0299,-0.0419,-0.042,-0.0421,-0.0422,0,0,-0.0531,-0.0512,-0.0501,-0.0491,-0.0474,-0.045,-0.0414,-0.0389,-0.0373,-0.0355,-0.0326,-0.0286,-0.0303,-0.0288,-0.0293,-0.0268,-0.0213,-0.029,-0.0289,-0.0277,-0.015,-0.0138,-0.0128,-0.0222,-0.022,-0.0219,-0.0152,0,-0.0462,-0.0401,-0.0407,-0.0349,-0.0322,-0.034,-0.031,-0.0296,-0.0293,-0.0269,-0.0266,-0.0238,-0.0261,-0.0253,-0.0229,-0.0225,-0.0188,-0.0229,-0.0196,-0.0195,-0.0202,-0.0116,-0.0103,-0.0041,-0.0144,-0.0142,-0.0141,0,-0.0374,-0.0354,-0.0293,-0.0281,-0.027,-0.0242,-0.022,-0.0197,-0.0181,-0.0181,-0.0165,-0.0175,-0.014,-0.0171,-0.0124,-0.0152,-0.0138,-0.0134,-0.0132,-0.0131,-0.0166,-0.0114,-0.0021,-0.0012,-0.0127,-0.0128,-0.0129,0,-0.0314,-0.0271,-0.0231,-0.0221,-0.0205,-0.0186,-0.0178,-0.0165,-0.0149,-0.013,-0.012,-0.0096,-0.0083,-0.0064,-0.0068,-0.009,-0.002,-0.0051,-0.0019,-0.0019,-0.0005,-0.0006,0.009,0.0007,0.0007,0.0006,0.0006,0,-0.0238,-0.0201,-0.0204,-0.0179,-0.0138,-0.0145,-0.0104,-0.0099,-0.0087,-0.0062,-0.0075,-0.0051,-0.0056,-0.0032,-0.0034,0.0005,0.0011,0.0012,0.001,0.0012,0.0012,0.0019,0.0014,0.0009,0.0008,0.0008,0.0007,0,-0.0165,-0.0165,-0.0122,-0.0111,-0.0107,-0.0078,-0.0068,-0.0045,-0.0043,-0.0011,-0.0004,-0.0001,0.0026,0.0025,0.0057,0.0055,0.0102,0.0097,0.0097,0.0095,0.0125,0.0122,0.0228,0.0241,0.0152,0.0153,0.0153,0,-0.0117,-0.0089,-0.0075,-0.0059,-0.0051,-0.0025,-0.001,-0.0015,0.0002,0.0021,0.0042,0.0068,0.0088,0.0133,0.0137,0.0161,0.0155,0.0191,0.0158,0.0158,0.0153,0.0151,0.0153,0.0196,0.0197,0.0198,0.0199,0,-0.0033,-0.0035,-0.0012,0.001,0.0028,0.0046,0.0062,0.0076,0.0072,0.0091,0.0119,0.0135,0.0166,0.0192,0.0214,0.0222,0.0209,0.0209,0.0217,0.0218,0.0216,0.0215,0.0112,0.0206,0.0206,0.0205,0.0205,0.0204,0.0028,0.0051,0.0064,0.0089,0.01,0.0115,0.0137,0.0141,0.0164,0.0189,0.0185,0.0215,0.0229,0.0258,0.0268,0.0291,0.0278,0.0291,0.0293,0.0296,0.0298,0.0214,0.0296,0.0295,0.0295,0.0295,0.0295,0,0.0109,0.0116,0.014,0.0162,0.0181,0.0168,0.0185,0.0202,0.0229,0.0243,0.0263,0.0294,0.0319,0.0325,0.0349,0.0366,0.0361,0.0373,0.037,0.0372,0.031,0.0299,0.0376,0.0376,0.0376,0.0376,0.0376,0.0376,0.0153,0.0191,0.0191,0.0234,0.0242,0.0271,0.0281,0.0295,0.0306,0.0341,0.0361,0.0365,0.0376,0.04,0.0422,0.0423,0.0431,0.0445,0.0443,0.0385,0.0377,0.0369,0.0359,0.0447,0.0447,0.0503,0.0504,0.0504]},{"header":{"parameterUnit":"m.s-1","parameterCategory":1,"la1":30.2991,"la2":30.254,"lo1":-89.0895,"lo2":-89.0444,"dy":0.0017,"dx":0.0017,"nx":28,"ny":28,"refTime":"2025-03-03T03:00:00:Z","depth":0,"parameterNumber":3,"parameterNumberName":"V-component_of_WINDS"},"data":[0,0,0,0,0,0,0,0,0,0,0,0,0,0,0,0,0,0,0,0,0,0,0,0,0,0,0,0,0,0,0,0,0,0,0,0,0,0,0,0,0,0,0,0,0,0,0,0,0,0,0,0,0,0,0,0,0,0,1.4141,1.4139,0,1.4032,1.403,1.4029,1.3921,1.3919,1.3918,1.3916,1.3803,1.3802,1.38,0,0,0,0,0,0,0,0,0,0,0,0,0,1.4252,1.425,1.4141,1.4139,1.4138,1.4032,1.403,1.4029,1.3921,1.3919,1.3917,1.3916,1.3804,1.3802,1.38,0,0,0,0,0,0,0,0,0,0,0,0,0,1.4179,1.425,1.4141,1.4071,1.4064,1.4032,1.403,1.4029,1.3921,1.3919,1.3917,1.3915,1.3805,1.3802,1.38,1.3827,0,0,1.3792,1.3791,0,0,0,0,0,0,0,0,1.4184,1.4175,1.4083,1.4076,1.4068,1.3988,1.4028,1.3961,1.3922,1.3975,1.3916,1.3914,1.3866,1.3859,1.3843,1.3822,1.3817,1.3792,1.379,1.3789,1.3788,0,0,0,0,0,0,0,1.4189,1.4179,1.4097,1.4082,1.4072,1.4044,1.4032,1.4015,1.3934,1.3971,1.3962,1.3951,1.3862,1.3846,1.3839,1.3816,1.3792,1.379,1.3788,1.3787,1.3808,1.381,0,0,0,0,0,0,1.4205,1.4184,1.4101,1.4094,1.4122,1.4044,1.403,1.4015,1.3934,1.392,1.3953,1.3946,1.3851,1.3842,1.3835,1.3859,1.3789,1.3787,1.3785,1.3806,1.3808,1.381,0,0,0,0,0,0,1.4208,1.4198,1.4105,1.4137,1.4123,1.4045,1.4029,1.4014,1.3998,1.3921,1.3906,1.3951,1.3849,1.3838,1.3829,1.3853,1.3786,1.3783,1.3803,1.3806,1.3809,1.3909,0,0,0,0,0,0,1.4211,1.42,1.4211,1.4138,1.4122,1.4103,1.4031,1.4014,1.3994,1.3985,1.3915,1.3902,1.3846,1.3834,1.3827,1.3849,1.3781,1.3801,1.3805,1.3808,1.3903,1.3915,1.3925,0,0,0,0,0,1.4216,1.4244,1.4212,1.4202,1.4134,1.4105,1.4095,1.4031,1.3997,1.4006,1.3956,1.3904,1.3853,1.3834,1.3825,1.3847,1.3799,1.3803,1.3808,1.3898,1.3913,1.3925,0,0,0,0,0,0,1.4321,1.4233,1.4197,1.4202,1.4162,1.4086,1.4096,1.4049,1.4017,1.4009,1.3931,1.3916,1.3915,1.388,1.3861,1.3867,1.3818,1.3821,1.389,1.3903,1.3914,1.3921,1.3779,0,0,0,0,0,1.4345,1.433,1.4253,1.4266,1.4247,1.4175,1.416,1.4114,1.4069,1.4051,1.4,1.3958,1.3931,1.3915,1.3887,1.3898,1.3879,1.3909,1.392,1.3929,1.3932,1.3931,1.3942,1.3825,1.3825,1.3825,0,0,1.4395,1.4344,1.4339,1.4285,1.4248,1.4232,1.4162,1.4149,1.4135,1.4049,1.4036,1.3998,1.3944,1.3944,1.3942,1.3915,1.396,1.3935,1.3943,1.3941,1.3937,1.3948,1.3958,1.3829,1.3828,1.3827,0,0,1.4475,1.4438,1.4442,1.4406,1.4351,1.4303,1.4304,1.4235,1.4206,1.4192,1.4126,1.4109,1.4066,1.4029,1.4006,1.4071,1.402,1.4064,1.4121,1.4121,1.413,1.4138,1.4158,1.4166,1.4067,1.4068,1.4068,0,1.4543,1.4518,1.445,1.444,1.4417,1.4338,1.434,1.4309,1.4248,1.4233,1.4204,1.4146,1.4105,1.4094,1.4109,1.4094,1.409,1.407,1.4135,1.4142,1.4148,1.4166,1.4174,1.4073,1.4072,1.4072,1.4071,0,1.4602,1.4585,1.4595,1.4537,1.4515,1.4512,1.4442,1.4428,1.4384,1.4338,1.4323,1.4271,1.4229,1.4224,1.4181,1.4205,1.419,1.415,1.4098,1.4165,1.4181,1.4187,1.4081,1.4079,1.4077,1.4076,0,0,1.4746,1.465,1.4654,1.4625,1.4558,1.4543,1.4535,1.4494,1.4482,1.4442,1.4431,1.4396,1.4357,1.433,1.4282,1.4283,1.4333,1.4241,1.4239,1.4257,1.4353,1.4382,1.4391,1.4301,1.4302,1.4303,1.4356,0,1.4813,1.4794,1.4732,1.4731,1.4713,1.4637,1.4629,1.4586,1.4543,1.452,1.4472,1.4447,1.44,1.4382,1.4379,1.4328,1.4351,1.4324,1.4287,1.4287,1.43,1.4399,1.443,1.4483,1.4362,1.4363,1.4364,0,1.4888,1.4852,1.485,1.4781,1.477,1.4765,1.4721,1.4701,1.465,1.4618,1.4587,1.4533,1.4518,1.4472,1.4449,1.4431,1.4413,1.4385,1.4385,1.4377,1.4327,1.4391,1.4499,1.4506,1.4373,1.4372,1.4372,0,1.4989,1.4941,1.4932,1.491,1.483,1.4827,1.4794,1.474,1.4719,1.468,1.4665,1.4626,1.4603,1.4573,1.4509,1.4482,1.4491,1.4441,1.4462,1.4463,1.4465,1.4466,1.4569,1.4459,1.4459,1.4459,1.4458,0,1.5069,1.5069,1.4976,1.497,1.4967,1.4896,1.4895,1.4854,1.4807,1.479,1.4723,1.4709,1.4627,1.4602,1.4552,1.4538,1.4529,1.4501,1.4487,1.4506,1.4509,1.449,1.4484,1.4461,1.446,1.446,1.4459,0,1.518,1.5118,1.5103,1.5028,1.5009,1.501,1.4945,1.4936,1.4888,1.4868,1.4859,1.4784,1.4752,1.4686,1.4635,1.4601,1.4598,1.4575,1.4615,1.4606,1.4629,1.4627,1.4722,1.473,1.4619,1.462,1.4621,0,1.5234,1.5232,1.5157,1.5141,1.511,1.5086,1.5063,1.4992,1.4971,1.4911,1.4908,1.4871,1.4836,1.4788,1.4728,1.4688,1.4662,1.4698,1.4655,1.4672,1.4658,1.4658,1.4656,1.4707,1.4708,1.471,1.4711,0,1.5334,1.5303,1.5273,1.5232,1.5207,1.5171,1.5132,1.5123,1.5042,1.5021,1.4987,1.4961,1.4908,1.487,1.4821,1.4785,1.4733,1.4725,1.4727,1.4744,1.4766,1.4751,1.4638,1.4723,1.4721,1.472,1.472,1.4719,1.5415,1.5409,1.5354,1.5323,1.5286,1.525,1.5236,1.5187,1.5158,1.511,1.507,1.5038,1.4984,1.4913,1.4879,1.4852,1.4827,1.4832,1.4832,1.4833,1.4839,1.4773,1.4843,1.4843,1.4842,1.4842,1.4842,0,1.5509,1.547,1.5442,1.5388,1.5363,1.5318,1.5272,1.5253,1.5226,1.5181,1.5148,1.5107,1.507,1.5007,1.4963,1.4954,1.4929,1.4944,1.4943,1.4934,1.4866,1.4867,1.4965,1.4965,1.4965,1.4965,1.4965,1.4965,1.5555,1.5541,1.5503,1.5469,1.5429,1.5399,1.5375,1.5341,1.5304,1.5261,1.523,1.519,1.5136,1.5088,1.505,1.5032,1.5018,1.5041,1.5015,1.4951,1.494,1.4929,1.4929,1.5039,1.5039,1.5085,1.5086,1.5086]}]]